Regional Weather Roundup
Issued by NWS

Home | Current Version | Previous Version | Text Only | Print | Product List | Glossary Off
Versions: 1 2 3 4 5 6 7 8 9 10 11 12 13 14 15 16 17 18 19 20 21 22 23 24 25 26 27 28 29 30 31 32 33 34 35 36 37 38 39 40 41 42 43 44 45 46 47 48 49 50

000
ASUS43 KIND 041909
RWRIN

WEATHER ROUNDUP FOR INDIANA
NATIONAL WEATHER SERVICE INDIANAPOLIS IN
300 PM EDT MON MAY 04 2015

NOTE: "FAIR" INDICATES FEW OR NO CLOUDS BELOW 12,000 FEET WITH NO
SIGNIFICANT WEATHER AND/OR OBSTRUCTIONS TO VISIBILITY.

* - STATION DOES NOT REPORT WEATHER SUCH AS PRECIPITATION OR FOG.

+ - STATION NOT QUALITY CONTROLLED BY THE NATIONAL WEATHER SERVICE.
    USE DATA WITH CAUTION...ESPECIALLY DEWPOINT AND RELATIVE
    HUMIDITY OBSERVATIONS.

INZ001>003-010>013-019-020-042000-
NORTHWEST INDIANA

CITY           SKY/WX    TMP DP  RH WIND       PRES   REMARKS
GARY /AIRPORT/ CLOUDY    73 N/A N/A W8        30.12R
KNOX *+        PTSUNNY   68  50  52 SW8       30.13S
LA PORTE +     CLOUDY    72  61  69 SW8       30.14R
MICHIGAN CITY+ CLOUDY    64  52  63 N9        30.14R
MONTICELLO +   CLOUDY    67  61  81 SW7       30.15R
VALPARAISO     CLOUDY    69  60  73 SW9       30.14R

$$

LMZ046-743>745-042000-
SOUTHERN LAKE MICHIGAN

STATION/POSITION TIME  TEMP    WIND        PRES    WAVE
                       AIR SEA DIR/SP/G            HT
                 (UTC) (F)     (DEG/KT/KT) (MB)    (FT)
BURNS HARBOR     1900   63      40/  3/  4 1020.7R
MICHIGAN CITY    1900   56     360/  8/ 11   N/A
5NW MICH CITY    1900   53 50  360/  8/ 10   N/A     0

$$

INZ004-005-014>016-021>024-042000-
NORTH CENTRAL INDIANA

CITY           SKY/WX    TMP DP  RH WIND       PRES   REMARKS
ELKHART        CLOUDY    70  57  64 SW14      30.14R
GOSHEN         CLOUDY    69  61  75 SW13      30.13R
LOGANSPORT +   PTSUNNY   68  61  77 SW9       30.16S
PERU/GRISSOM   PTSUNNY   67  61  82 SW12      30.15R
ROCHESTER +    PTSUNNY   70  63  78 SW10      30.15S
SOUTH BEND     CLOUDY    70  59  68 W10       30.13R
WARSAW +       PTSUNNY   70  59  68 SW10G16   30.14S

$$

INZ006>009-017-018-025>027-042000-
NORTHEAST INDIANA

CITY           SKY/WX    TMP DP  RH WIND       PRES   REMARKS
ANGOLA *+      PTSUNNY   73  61  64 SW16      30.12R
AUBURN +       PTSUNNY   70  57  64 SW8G16    30.15R
FORT WAYNE     CLOUDY    65  60  84 SW12      30.16R
HUNTINGTON +   CLOUDY    66  62  85 W9        30.16R

$$

INZ028-029-035-036-043>045-051>053-042000-
WEST CENTRAL INDIANA

CITY           SKY/WX    TMP DP  RH WIND       PRES   REMARKS
CRAWFORDSVL +  CLOUDY    70  58  64 SW10      30.15R
GREENCASTLE +  CLOUDY    72  55  56 SW8       30.16R
LAFAYETTE      CLOUDY    68  60  75 NW3       30.15R
TERRE HAUTE    PTSUNNY   77  59  53 SW10      30.14S

$$

INZ030>032-037>040-046>048-054>057-064-065-042000-
CENTRAL INDIANA

CITY           SKY/WX    TMP DP  RH WIND       PRES   REMARKS
ANDERSON       PTSUNNY   66  54  63 S7        30.17R
CP ATTERBURY + CLOUDY    72  59  64 S6        30.17S
COLUMBUS       CLOUDY    70  55  60 S8        30.17
FISHERS *+     CLOUDY    66  61  82 S9        30.15F
FRANKFORT +    CLOUDY    68  62  80 S7        30.17S
GREENWOOD *+   CLOUDY    72  57  60 SW5       30.17R
INDIANAPOLIS   CLOUDY    69  60  73 S7        30.15R
-EAGLE CREEK   CLOUDY    67  59  75 S9        30.15S
KOKOMO *+      PTSUNNY   68  61  77 SW8       30.16S
MARION +       PTSUNNY   65  59  79 W6        30.17S
MT COMFORT *+  CLOUDY    68  52  56 SW7       30.17R
SHELBYVILLE    CLOUDY    74  58  57 S10       30.16R
ZIONSVILLE +   CLOUDY    68  59  73 S12       30.16R

$$

INZ033-034-041-042-049-050-058-059-042000-
EAST CENTRAL INDIANA

CITY           SKY/WX    TMP DP  RH WIND       PRES   REMARKS
MUNCIE         CLOUDY    70  58  65 SW12G17   30.15R

$$

INZ060-061-067>069-081>083-085>088-042000-
SOUTHWEST INDIANA

CITY           SKY/WX    TMP DP  RH WIND       PRES   REMARKS
EVANSVILLE     PTSUNNY   83  56  39 SW16      30.16S
HUNTINGBURG *+ PTSUNNY   82  59  44 SW12G21   30.16S
WASHINGTON +   CLOUDY    79  55  44 SW6       30.15S

$$

INZ062-063-066-070>080-084-089>092-042000-
SOUTH CENTRAL AND SOUTHEAST INDIANA

CITY           SKY/WX    TMP DP  RH WIND       PRES   REMARKS
BEDFORD +      CLOUDY    77  55  47 SW6       30.16F
BLOOMINGTON    CLOUDY    76  57  51 S8        30.17R
MADISON *+     PTSUNNY   81  50  34 W3        30.19F
NORTH VERNON + CLOUDY    75  59  57 SW5       30.18F
SEYMOUR +      CLOUDY    79  55  44 CALM      30.16F

$$




USA.gov is the U.S. government's official web portal to all federal, state and local government web resources and services.